This is the latest recevied weather packets stored in our database for station/object DL1MX-13. If no packets are shown the sender has not sent any weather packets the latest 1 day(s).
| Time | Temp. | Humidity | Pressure | Rain* | Wind** | Luminosity | Snow |
|---|---|---|---|---|---|---|---|
| 1777987622 | 14.44° C | 82% | 1009.5 hPa | 0 mm | 1.34 m/s, 205° | - | - |
| 1777987562 | 14.44° C | 82% | 1009.4 hPa | 0 mm | 1.34 m/s, 205° | - | - |
| 1777987502 | 14.44° C | 82% | 1009.4 hPa | 0 mm | 1.79 m/s, 212° | - | - |
| 1777987442 | 14.44° C | 82% | 1009.4 hPa | 0 mm | 1.79 m/s, 212° | - | - |
| 1777987381 | 14.44° C | 82% | 1009.4 hPa | 0 mm | 1.79 m/s, 212° | - | - |
| 1777987322 | 14.44° C | 81% | 1009.5 hPa | 0 mm | 3.13 m/s, 215° | - | - |
| 1777987261 | 14.44° C | 81% | 1009.5 hPa | 0 mm | 3.13 m/s, 215° | - | - |
| 1777987202 | 14.44° C | 81% | 1009.4 hPa | 0 mm | 3.13 m/s, 215° | - | - |
| 1777987141 | 14.44° C | 81% | 1009.4 hPa | 0 mm | 3.13 m/s, 210° | - | - |
| 1777987082 | 14.44° C | 81% | 1009.4 hPa | 0 mm | 3.13 m/s, 210° | - | - |
| 1777987022 | 14.44° C | 81% | 1009.4 hPa | 0 mm | 2.68 m/s, 212° | - | - |
| 1777986962 | 14.44° C | 81% | 1009.4 hPa | 0 mm | 2.68 m/s, 212° | - | - |
| 1777986902 | 14.44° C | 81% | 1009.4 hPa | 0 mm | 2.68 m/s, 212° | - | - |
| 1777986841 | 15° C | 80% | 1009.4 hPa | 0 mm | 3.13 m/s, 212° | - | - |
| 1777986782 | 15° C | 80% | 1009.4 hPa | 0 mm | 3.13 m/s, 212° | - | - |
| 1777986756 | 15° C | 80% | 1009.4 hPa | 0 mm | 3.13 m/s, 212° | - | - |
| 1777986662 | 15° C | 80% | 1009.5 hPa | 0 mm | 3.13 m/s, 212° | - | - |
| 1777986601 | 15° C | 80% | 1009.5 hPa | 0 mm | 3.13 m/s, 212° | - | - |
| 1777986542 | 15° C | 81% | 1009.4 hPa | 0 mm | 2.68 m/s, 227° | - | - |
| 1777986482 | 15° C | 81% | 1009.5 hPa | 0 mm | 2.68 m/s, 227° | - | - |
| 1777986421 | 15° C | 81% | 1009.4 hPa | 0 mm | 2.68 m/s, 227° | - | - |
| 1777986362 | 14.44° C | 80% | 1009.4 hPa | 0 mm | 1.34 m/s, 215° | - | - |
| 1777986301 | 14.44° C | 80% | 1009.4 hPa | 0 mm | 1.34 m/s, 215° | - | - |
| 1777986242 | 14.44° C | 80% | 1009.4 hPa | 0 mm | 1.79 m/s, 220° | - | - |
| 1777986186 | 14.44° C | 80% | 1009.5 hPa | 0 mm | 1.79 m/s, 220° | - | - |
* Rain since midnight (hover to see other rain measurements)
** Current wind speed in m/s (hover to see current wind gust speed)